TimeMST,TemperatureF,Dew PointF,Humidity,Sea Level PressureIn,VisibilityMPH,Wind Direction,Wind SpeedMPH,Gust SpeedMPH,PrecipitationIn,Events,Conditions,WindDirDegrees,DateUTC
12:53 AM,30.0,25.0,82,30.20,10.0,WNW,13.8,-,N/A,,Mostly Cloudy,300,2013-02-02 07:53:00
2:53 AM,30.9,24.1,76,30.25,10.0,NW,13.8,-,N/A,,Mostly Cloudy,320,2013-02-02 09:53:00
3:53 AM,28.9,21.9,75,30.28,10.0,WNW,13.8,-,N/A,,Clear,300,2013-02-02 10:53:00
5:53 AM,28.0,21.0,75,30.30,10.0,NW,17.3,-,N/A,,Clear,310,2013-02-02 12:53:00
6:53 AM,27.0,19.0,72,30.32,10.0,West,9.2,-,N/A,,Clear,280,2013-02-02 13:53:00
7:53 AM,28.9,21.0,72,30.33,10.0,WNW,13.8,-,N/A,,Clear,290,2013-02-02 14:53:00
8:53 AM,34.0,24.1,67,30.32,10.0,NW,12.7,-,N/A,,Clear,310,2013-02-02 15:53:00
9:53 AM,37.9,26.1,62,30.33,10.0,NW,13.8,-,N/A,,Clear,320,2013-02-02 16:53:00
10:53 AM,45.0,23.0,42,30.30,10.0,NW,24.2,33.4,N/A,,Clear,310,2013-02-02 17:53:00
11:53 AM,46.0,21.9,39,30.29,10.0,NW,24.2,28.8,N/A,,Clear,310,2013-02-02 18:53:00
12:53 PM,48.0,21.9,36,30.26,10.0,NW,18.4,28.8,N/A,,Clear,310,2013-02-02 19:53:00
1:53 PM,50.0,19.9,31,30.23,10.0,NW,19.6,28.8,N/A,,Clear,320,2013-02-02 20:53:00
2:53 PM,50.0,14.0,24,30.24,10.0,NNW,25.3,31.1,N/A,,Clear,340,2013-02-02 21:53:00
3:53 PM,48.0,14.0,26,30.25,10.0,NNW,19.6,-,N/A,,Clear,340,2013-02-02 22:53:00
4:53 PM,44.1,14.0,30,30.27,10.0,North,15.0,-,N/A,,Clear,350,2013-02-02 23:53:00
5:53 PM,33.1,12.9,43,30.33,10.0,NW,6.9,-,N/A,,Clear,320,2013-02-03 00:53:00
6:53 PM,33.1,16.0,50,30.35,10.0,North,10.4,-,N/A,,Clear,350,2013-02-03 01:53:00
7:53 PM,30.0,16.0,56,30.37,10.0,NNW,9.2,-,N/A,,Clear,340,2013-02-03 02:53:00
8:53 PM,19.0,12.9,77,30.39,10.0,West,8.1,-,N/A,,Clear,280,2013-02-03 03:53:00
9:53 PM,19.9,14.0,78,30.38,10.0,West,5.8,-,N/A,,Clear,280,2013-02-03 04:53:00
10:53 PM,19.0,12.9,77,30.32,10.0,West,3.5,-,N/A,,Clear,270,2013-02-03 05:53:00
11:53 PM,21.9,16.0,78,30.32,10.0,WSW,10.4,-,N/A,,Clear,240,2013-02-03 06:53:00